This is the latest recevied weather packets stored in our database for station/object W6MAF. If no packets are shown the sender has not sent any weather packets the latest 10 day(s).
| Time | Temp. | Humidity | Pressure | Rain* | Wind** | Luminosity | Snow |
|---|---|---|---|---|---|---|---|
| 1788335942 | 16.11° C | 12% | - | 0 mm | 0 m/s | - | - |
| 1788335644 | 16.11° C | 12% | - | 0 mm | 0 m/s | - | - |
| 1788335347 | 16.11° C | 12% | - | 0 mm | 0 m/s | - | - |
| 1788335046 | 16.67° C | 12% | - | 0 mm | 0 m/s | - | - |
| 1788334748 | 16.67° C | 12% | - | 0 mm | 4.92 m/s, 174° | - | - |
| 1788334450 | 16.67° C | 13% | - | 0 mm | 5.36 m/s, 172° | - | - |
| 1788334153 | 16.67° C | 13% | - | 0 mm | 5.36 m/s, 177° | - | - |
| 1788333856 | 16.67° C | 13% | - | 0 mm | 4.92 m/s, 191° | - | - |
| 1788333557 | 16.67° C | 13% | - | 0 mm | 6.71 m/s, 159° | - | - |
| 1788333257 | 16.67° C | 13% | - | 0 mm | 5.81 m/s, 166° | - | - |
| 1788333114 | 16.67° C | 12% | - | 0 mm | 6.26 m/s, 179° | - | - |
| 1788332959 | 16.67° C | 12% | - | 0 mm | 6.26 m/s, 179° | - | - |
| 1788332661 | 16.67° C | 12% | - | 0 mm | 6.71 m/s, 166° | - | - |
| 1788332363 | 16.67° C | 13% | - | 0 mm | 5.81 m/s, 186° | - | - |
| 1788332065 | 16.67° C | 13% | - | 0 mm | 5.81 m/s, 190° | - | - |
| 1788331768 | 16.67° C | 14% | - | 0 mm | 5.81 m/s, 177° | - | - |
| 1788331467 | 16.67° C | 15% | - | 0 mm | 5.36 m/s, 167° | - | - |
| 1788331169 | 16.11° C | 16% | - | 0 mm | 4.02 m/s, 173° | - | - |
| 1788330871 | 16.67° C | 17% | - | 0 mm | 2.24 m/s, 135° | - | - |
| 1788330574 | 16.67° C | 18% | - | 0 mm | 1.34 m/s, 105° | - | - |
| 1788330276 | 16.67° C | 19% | - | 0 mm | 2.24 m/s, 167° | - | - |
| 1788329978 | 16.67° C | 20% | - | 0 mm | 4.02 m/s, 166° | - | - |
| 1788329380 | 16.67° C | 22% | - | 0 mm | 3.58 m/s, 159° | - | - |
| 1788329082 | 16.67° C | 24% | - | 0 mm | 4.47 m/s, 152° | - | - |
| 1788328784 | 17.22° C | 25% | - | 0 mm | 5.36 m/s, 156° | - | - |
* Rain latest hour (hover to see other rain measurements)
** Current wind speed in m/s (hover to see current wind gust speed)